Location: Berville
(49.1893°N, 2.0748°E)
Time: 18:58:41
(UTC+00:00)

FENGYUN 1C DEB - Pass Details

Date: 27 February 2024
Orbit: 768 x 960 km, 99.0° (Epoch: 13 April)

Event Time Altitude Azimuth Distance (km) Brightness Sun altitude
Exits shadow 22:14:50 21° 294° (WNW) 2,032 ? -43.1°
Drops below altitude 10° 22:17:47 10° 321° (NW) 2,691 ? -43.4°
Sets 22:20:47 0° 335° (NNW) 3,624 ? -43.7°
